Flag for China Weather past 2 weeks in Chongqing, Chongqing Municipality, China

Now
52 °F

Passing clouds.


Feels Like: 51 °F
Forecast: 51 / 58 °F
Wind: 3 mph from Northeast

Location: Chongqing Airport

Current Time: Feb 28, 2015 at 1:04:58 AM

Latest Report: Feb 28, 2015 at 12:00 AM


Visibility: N/A

Pressure: 30.01 "Hg

Humidity: 82%

Dew point: 46 °F

Location of ChongqingLocation

Historic Weather in Chongqing — Graph

°F

Chongqing temperature yesterday

Maximum temperature yesterday: 57 °F (at 1:00 PM)
Minimum temperature yesterday: 52 °F (at 3:00 AM)
Average temperature yesterday: 54 °F

Past Weeks' High & Low Weather Summary

 TemperatureHumidityPressure
High70 °F (Feb 18, 3:00 PM)94% (Feb 22, 9:00 AM)30.18 "Hg (Feb 22, 9:00 AM)
Low48 °F (Feb 13, 4:00 AM)49% (Feb 14, 3:00 PM)29.71 "Hg (Feb 14, 3:00 PM)
Average56 °F73%29.94 "Hg
* Reported Midnight between Feb 12 and Feb 13 — Midnight between Feb 27 and Feb 28, Chongqing, Weather by CustomWeather, © 2015

Note: Actual official high and low records may vary slightly from our data, if they occured in-between our weather recording intervals... More about our weather records

Advertising

Chongqing weather history for previous 24 hours

 ConditionsComfort  
Time TempWeatherWind HumidityBarometerVisibility
12:00 AM
Sat, Feb 28
52 °FPassing clouds.3 mph82%30.01 "HgN/A
11:00 PM
Fri, Feb 27
52 °FPassing clouds.6 mph82%30.01 "HgN/A
10:00 PM54 °FPassing clouds.8 mph72%30.01 "HgN/A
9:00 PM54 °FPassing clouds.8 mph77%29.98 "HgN/A
8:00 PM54 °FPassing clouds.10 mph72%29.92 "HgN/A
7:00 PM55 °FPassing clouds.13 mph67%29.89 "HgN/A
6:00 PM55 °FPassing clouds.10 mph67%29.86 "HgN/A
5:00 PM55 °FPassing clouds.13 mph67%29.83 "HgN/A
4:00 PM57 °FScattered clouds.10 mph63%29.83 "HgN/A
3:00 PM57 °FScattered clouds.10 mph63%29.83 "HgN/A
2:00 PM57 °FScattered clouds.10 mph63%29.83 "HgN/A
1:00 PM57 °FScattered clouds.8 mph63%29.86 "HgN/A
12:00 PM55 °FScattered clouds.8 mph67%29.89 "HgN/A
11:00 AM54 °FScattered clouds.10 mph77%29.89 "HgN/A
10:00 AM54 °FScattered clouds.10 mph77%29.89 "HgN/A
9:00 AM52 °FScattered clouds.13 mph77%29.89 "HgN/A
8:00 AM52 °FPassing clouds.10 mph77%29.86 "HgN/A
7:00 AM52 °FMostly cloudy.10 mph82%29.83 "HgN/A
6:00 AM52 °FMostly cloudy.10 mph82%29.83 "HgN/A
5:00 AM52 °FMostly cloudy.10 mph82%29.83 "HgN/A
4:00 AM52 °FLight rain. Mostly cloudy.10 mph82%29.80 "HgN/A
3:00 AM52 °FLight rain. Mostly cloudy.8 mph82%29.83 "HgN/A
2:00 AM54 °FLight rain. Mostly cloudy.6 mph77%29.83 "HgN/A
1:00 AM54 °FMostly cloudy.6 mph72%29.83 "HgN/A
Weather by CustomWeather, © 2015

See weather overviewHow to use our weather pages